Regional Weather Roundup
Issued by NWS Sterling, VA

Home | Current Version | Previous Version | Text Only | Print | Product List | Glossary Off
Versions: 1 2 3 4 5 6 7 8 9 10 11 12 13 14 15 16 17 18 19 20 21 22 23 24 25 26 27 28 29 30 31 32 33 34 35 36 37 38 39 40 41 42 43 44 45 46 47 48 49 50

000
ASUS41 KLWX 191010
RWRLWX

REGIONAL WEATHER ROUNDUP
NATIONAL WEATHER SERVICE BALTIMORE MD/WASHINGTON DC
600 AM EDT TUE AUG 19 2014

Note: "FAIR" indicates few or no clouds below 12,000 feet
with no significant weather and/or obstructions to visibility.
 TC=TEMPERATURE CELSIUS

 * =Non NWS site. Station does not report precipitation (e.g. rain,
    snow, etc.), thunder, or fog.

DCZ001-MDZ009-015-VAZ040>042-051-053>054-191100-
WASHINGTON METRO
  /KDAA//-FT BELVOIR

CITY           SKY/WX    TMP DP  RH WIND       PRES   REMARKS
WASHINGTON NAT CLOUDY    74  66  76 NE7       29.83R
DULLES         MOCLDY    69  66  90 NE8       29.83R
ANDREWS AFB    PTCLDY    69  67  93 NE7       29.82R
QUANTICO       CLOUDY    73  69  87 NE12      29.82R
COLLEGE PARK*  PTCLDY    70  68  94 CALM      29.83R
LEESBURG*      CLOUDY    70  68  94 CALM      29.85S
MANASSAS*      CLOUDY    72  70  94 N6        29.82R
GAITHERSBURG*  PTCLDY    66  63  88 CALM      29.87S

$$

MDZ006>007-011-014-191100-
BALTIMORE METRO

CITY           SKY/WX    TMP DP  RH WIND       PRES   REMARKS
BWI AIRPORT    PTCLDY    70  64  81 NE6       29.83R
MD SCIENCE CTR   N/A     72  64  76 MISG      29.84R
MARTIN STATE   MOCLDY    70  68  94 CALM      29.84S
ANNAPOLIS      MOCLDY    72  67  84 NE8       29.82R
FORT MEADE*    CLEAR     64  63  94 CALM      29.85S

$$

MDZ012-015-019>023-191100-
MARYLAND EASTERN SHORE

CITY           SKY/WX    TMP DP  RH WIND       PRES   REMARKS
OCEAN CITY     CLOUDY    75  72  90 SE8       29.80S
SALISBURY      CLOUDY    74  70  87 NE3       29.80S
BAY BRIDGE AP*   N/A     72  64  78 NE5       29.83R
CAMBRIDGE*     PTCLDY    72  68  88 NE6       29.80S
EASTON*        CLOUDY    72  69  92 CALM      29.86R

$$

MDZ017>025-191100-
SOUTHERN MARYLAND

CITY           SKY/WX    TMP DP  RH WIND       PRES   REMARKS
PATUXENT RIVER MOCLDY    72  70  93 NE5       29.79S
ST INIGOES     MOCLDY    70  66  87 NE3       29.79R
LEONARDTOWN*   MOCLDY    70  66  88 CALM      29.82R

$$

MDZ003>005-191100-
NORTH CENTRAL MARYLAND

CITY           SKY/WX    TMP DP  RH WIND       PRES   REMARKS
FREDERICK*     MOCLDY   N/A N/A N/A CALM      29.87R
HAGERSTOWN APT PTCLDY    67  62  84 NW6       29.85R
WESTMINSTER*   PTCLDY    66  64  94 N3        29.86R

$$

MDZ501>502-191100-
WESTERN MARYLAND

CITY           SKY/WX    TMP DP  RH WIND       PRES   REMARKS
OAKLAND*       FOG       63 N/A N/A SE7       29.92S VSB 1/4
CUMBERLAND*    CLOUDY    70  64  83 CALM      29.89R

$$

VAZ025>031-191100-
SHENANDOAH VALLEY

CITY           SKY/WX    TMP DP  RH WIND       PRES   REMARKS
WINCHESTER*    MOCLDY    68  64  88 CALM      29.84S
STAUNTON*      MOCLDY    63  60  92 CALM      29.87R FOG

$$

WVZ021-048>050-054>055-191100-
EASTERN WEST VIRGINIA PANHANDLE

CITY           SKY/WX    TMP DP  RH WIND       PRES   REMARKS
MARTINSBURG    PTCLDY    67  62  84 CALM      29.85R
PETERSBURG*    NOT AVBL

$$

VAZ036>039-050-191100-
CENTRAL FOOTHILLS

CITY           SKY/WX    TMP DP  RH WIND       PRES   REMARKS
CHARLOTTESVILL PTCLDY    70  67  90 CALM      29.82R
ORANGE*        CLOUDY    70  68  94 CALM      29.83R FOG

$$

VAZ055>057-191100-
NORTH AND CENTRAL PIEDMONT

CITY           SKY/WX    TMP DP  RH WIND       PRES   REMARKS
FREDERICKSBRG* CLOUDY    73  73 100 NE3       29.79S
STAFFORD*      CLOUDY    71  71 100 CALM      29.85R

$$

NCZ024-NYZ072-PAZ021-071-VAZ022-071-191100-
OTHER REGIONAL OBSERVATIONS

CITY           SKY/WX    TMP DP  RH WIND       PRES   REMARKS
NEW YORK CITY  CLEAR     63  54  72 VRB5      29.91R
PHILADELPHIA   CLEAR     66  56  70 NE7       29.87R
PITTSBURGH     MOCLDY    65  61  87 CALM      29.84S
ROANOKE        CLOUDY    70  68  93 CALM      29.86S
RICHMOND       CLOUDY    72  70  93 N6        29.79R FOG
RALEIGH        PTCLDY    69  67  93 W3        29.81R FOG

$$

ANZ530>537-191100-
MARINE OBSERVATIONS

STATION/POSITION TIME  TEMP    WIND        PRES
                       AIR SEA DIR/SP/G
                 (UTC) (F)     (DEG/KT/KT) (MB)
THOMAS PT LIGHT  1000   72 77   50/ 11/ 12 1010.3R
BALT KEY BRIDGE  1000   71      40/  5/  6 1009.8R
COVE POINT       1000   72      90/  8/  9 1009.0R
LEWISETTA        1000   72 78  350/  2/  3 1008.1S
SOLOMONS ISLAND  1000      79                N/A
PINEY POINT      1000           40/  4/  5   N/A

$$




USA.gov is the U.S. government's official web portal to all federal, state and local government web resources and services.